Temp
18 18 18 18 18 18 18 19 19 20 20 20 21 21 22 22 21 20 20 20 19 19 19 19 18 18 18 17 17 17 17 17 16 16 16 16 16 15 14 14 14 14 14 14 14 14 14 13 13 13 13 13 12 12 12 12 12 12 11 11 11 11 11 11 10 10 10 10 10 10 10 10 10 10 10 10 10 10 10 10 10 10 10 10 10
18 18 18 18 18 18 18 19 19 19 20 20 21 21 22 22 21 20 20 20 20 20 19 19 18 18 18 17 17 17 17 17 16 16 16 16 16 15 14 14 14 14 14 14 14 14 14 13 13 13 13 13 12 12 12 12 12 11 11 11 11 11 11 10 10 10 10 10 10 10 10 10 10 10 10 10 9 9 9 9 10 10 10 10 10
18 18 18 18 18 18 19 18 18 19 20 20 21 22 22 22 21 21 20 20 20 20 19 19 18 18 18 17 17 17 17 17 16 16 16 16 15 14 14 14 14 14 14 14 14 14 14 14 13 13 13 13 12 12 12 12 11 11 11 11 11 11 10 10 10 10 10 10 10 10 10 10 10 10 10 9 9 9 9 9 10 10 10 10 10
18 19 18 19 19 19 19 19 18 19 19 21 22 22 22 23 21 21 20 20 20 20 19 19 19 18 17 17 17 17 17 17 16 16 16 16 15 14 14 14 14 14 14 14 14 14 13 13 13 13 13 13 13 12 12 12 11 11 11 11 11 11 10 10 10 10 10 10 10 10 10 10 10 10 10 9 9 9 9 9 9 9 9 10 9
19 19 19 19 19 19 19 19 19 19 19 21 22 22 22 22 21 20 20 20 20 19 19 19 19 18 17 17 18 17 17 17 17 16 16 16 15 15 15 15 15 15 14 14 13 13 13 13 13 13 13 13 13 13 12 12 12 11 11 11 11 11 10 10 10 10 10 10 10 10 10 10 10 10 10 9 9 9 9 9 9 9 9 9 9
19 19 19 19 20 19 19 19 19 19 20 21 21 21 22 22 21 20 20 20 20 19 19 19 18 17 17 18 18 18 17 17 17 17 16 16 16 15 15 15 15 15 15 14 13 13 13 13 13 13 13 13 13 13 13 12 12 12 11 11 11 11 11 10 10 10 10 10 10 10 10 10 10 10 10 9 9 9 9 9 9 9 9 9 9
19 19 19 19 20 19 19 20 20 20 20 20 21 20 21 22 21 20 20 19 20 20 19 18 17 17 17 17 18 18 17 17 17 17 16 16 16 16 16 15 16 15 15 14 14 13 13 13 13 13 13 13 13 13 13 12 12 12 11 11 11 11 11 10 10 10 10 10 10 10 10 10 10 10 10 9 9 9 9 9 9 9 9 9 9
20 20 20 20 20 20 20 20 20 20 20 20 21 20 21 21 20 20 20 19 19 20 19 18 18 17 17 17 17 17 17 17 16 16 16 16 16 16 16 16 16 15 15 15 14 14 13 13 13 13 13 12 13 13 13 13 12 12 12 12 11 11 11 11 10 10 10 10 10 10 10 10 10 10 10 9 10 9 9 9 9 9 9 9 9
20 20 20 20 20 20 20 20 20 20 20 20 21 21 21 20 20 21 21 19 19 19 18 18 18 17 17 16 16 16 17 17 17 17 16 16 16 16 16 15 15 15 15 15 15 15 14 14 13 13 13 13 13 13 13 13 12 12 12 12 12 12 11 11 10 10 10 10 10 10 10 10 9 10 10 9 10 10 9 9 9 9 9 9 9
20 20 21 20 20 20 20 20 20 20 21 21 21 21 21 21 20 20 21 20 19 18 17 17 17 17 17 17 17 17 17 17 17 17 17 16 16 16 15 15 15 15 15 15 15 15 15 14 14 14 14 13 13 13 12 12 12 12 12 12 12 12 11 11 11 11 11 10 10 10 9 9 9 9 9 9 10 10 10 10 9 9 9 9 9
21 20 21 21 20 20 20 20 20 20 21 21 21 21 21 21 20 20 20 20 20 19 18 18 17 17 17 17 17 17 17 17 16 17 17 16 16 16 15 15 15 15 15 15 15 16 15 15 14 14 14 14 14 13 13 12 12 12 12 11 11 12 12 11 11 11 11 10 10 10 9 9 9 9 9 9 9 10 10 10 9 9 9 9 9
21 21 21 21 21 21 20 20 21 21 21 21 21 21 21 21 21 20 19 19 19 19 19 18 17 17 17 17 17 17 17 16 16 16 16 16 16 16 16 15 15 15 15 15 15 15 15 15 15 14 14 14 14 14 14 13 13 12 12 11 11 11 12 11 11 11 11 10 10 10 9 9 9 9 9 9 9 9 10 9 9 9 9 9 9
21 21 21 21 21 21 20 20 21 21 21 21 21 21 21 21 21 20 20 19 18 18 18 18 18 17 16 17 17 17 17 17 17 17 16 16 16 16 16 16 15 15 15 15 15 15 15 15 14 14 14 14 14 14 14 14 13 13 12 12 11 11 11 11 11 11 10 10 10 9 9 9 9 9 9 9 9 9 9 9 9 9 9 9 9
21 21 20 20 21 20 20 20 20 21 21 21 21 21 21 21 21 20 20 19 18 18 18 18 17 16 16 16 16 17 17 17 17 17 17 16 16 16 16 16 16 15 15 15 15 15 15 15 14 14 14 14 14 14 14 14 13 13 13 12 12 11 11 11 11 11 10 10 10 9 9 9 9 9 9 9 9 9 9 9 9 9 9 9 9
21 21 20 20 20 20 20 20 20 20 21 21 21 21 21 21 21 20 19 18 18 18 18 19 18 16 16 16 15 16 16 16 17 17 16 16 16 16 16 16 16 16 15 15 15 15 15 15 14 14 14 14 14 14 14 13 13 13 13 13 12 12 11 11 11 11 11 10 10 9 9 9 9 9 9 9 9 9 9 9 9 9 9 9 9
21 21 20 20 20 20 20 20 20 20 20 21 21 21 21 20 21 21 19 18 17 17 18 18 19 17 16 15 14 15 16 16 16 16 16 16 16 16 16 16 16 16 15 15 15 15 15 15 15 14 14 14 14 13 13 13 13 13 13 13 13 12 11 11 11 11 11 10 10 9 9 9 9 9 9 9 9 9 9 9 9 9 9 9 9
21 21 20 20 20 20 20 20 20 20 20 21 21 21 20 20 20 20 20 19 17 17 17 17 19 19 18 16 15 15 16 15 16 16 16 16 16 16 16 16 16 16 16 16 16 16 15 15 15 14 14 14 14 14 13 13 13 13 13 13 13 13 12 11 11 11 11 10 10 10 9 9 9 9 9 9 9 9 9 9 9 9 9 9 9
20 20 20 20 20 20 20 20 20 20 20 21 21 20 20 20 20 20 20 20 19 17 17 17 18 19 19 19 18 17 16 15 15 16 16 16 16 16 16 16 16 16 16 16 16 16 15 15 15 15 14 14 14 14 13 13 13 13 13 13 13 13 12 12 11 11 11 10 10 10 10 10 9 9 9 9 9 9 9 9 9 9 9 9 9
20 20 20 20 20 20 20 20 20 20 20 21 20 20 20 20 20 20 20 20 19 18 17 17 17 18 18 19 19 18 18 16 15 15 16 16 16 16 16 16 16 16 16 16 16 15 15 15 15 15 14 14 14 14 14 13 13 13 12 12 12 12 12 12 11 11 10 10 10 10 10 10 10 9 9 9 9 9 9 9 9 9 9 9 9
20 20 20 20 21 20 20 20 20 20 20 20 20 20 20 20 20 20 20 20 19 19 18 17 17 17 18 18 18 18 18 17 17 16 16 15 15 15 16 16 16 16 16 16 16 15 15 15 15 15 15 14 14 14 14 13 13 13 13 12 12 12 12 12 12 11 11 10 10 10 10 10 10 9 9 9 9 9 9 9 9 9 9 9 9
20 20 20 20 21 20 20 20 20 20 20 20 20 20 20 20 20 20 20 19 19 19 19 18 18 18 18 17 17 17 17 17 17 17 16 15 15 14 14 15 15 15 16 16 16 16 15 15 15 15 15 15 15 15 14 14 13 13 13 13 12 12 12 12 12 12 11 10 10 10 10 10 10 10 9 9 9 9 9 9 9 9 9 10 10
20 20 20 20 20 20 20 20 20 20 20 20 20 20 20 20 20 20 20 19 19 19 19 19 18 18 18 18 17 16 16 16 16 16 16 15 15 14 14 14 14 15 16 15 15 15 15 15 15 15 15 15 15 15 15 14 14 13 13 13 12 12 12 12 12 11 11 11 10 10 10 10 10 9 9 9 9 9 9 9 9 9 10 10 10
20 20 20 20 20 20 20 20 20 20 20 20 20 20 20 20 20 20 19 19 19 19 19 19 19 18 18 18 17 17 16 16 15 16 16 15 16 15 14 14 14 15 16 16 15 15 15 16 15 15 15 15 15 15 15 15 14 14 13 13 12 12 12 12 12 12 11 11 11 10 9 9 9 9 9 10 10 10 9 9 9 9 10 10 10
20 20 20 20 20 20 20 20 20 20 20 20 20 20 20 19 19 19 19 19 19 19 18 18 18 18 18 18 18 17 17 17 17 17 17 16 17 15 13 14 14 14 16 16 16 15 16 16 15 15 15 15 15 15 15 15 14 14 14 13 13 12 12 12 12 12 11 11 11 10 10 9 9 9 10 10 10 10 10 10 10 10 9 9 9
20 20 20 20 20 20 20 20 20 20 20 20 20 20 20 19 19 19 19 19 19 18 18 18 18 18 18 18 18 18 17 17 17 18 17 17 17 15 14 14 14 14 15 15 16 16 16 16 15 15 16 16 15 15 15 15 15 14 14 13 13 12 13 12 12 12 11 11 10 10 10 10 10 10 10 10 10 10 10 10 10 9 9 9 9
20 20 20 20 20 20 20 20 20 20 20 20 20 20 20 19 19 19 19 19 19 18 18 18 18 18 18 18 18 18 17 17 17 18 18 17 17 16 14 14 14 14 15 15 15 15 15 16 16 15 15 16 15 15 15 15 15 14 14 13 13 12 13 12 12 12 11 11 10 10 10 10 10 10 11 10 10 10 10 10 10 9 9 9 9
20 20 20 20 20 20 20 20 20 20 20 20 20 20 19 19 19 19 19 19 19 18 18 18 18 18 18 18 18 18 17 18 18 18 18 18 18 17 16 15 15 14 14 14 15 15 16 16 16 16 15 16 16 15 15 15 15 14 14 13 13 13 13 12 12 12 11 11 11 10 10 10 10 10 11 10 10 10 10 10 10 10 9 9 9
20 20 20 20 20 20 20 20 20 20 20 20 19 19 19 19 19 19 19 19 18 18 18 18 18 18 18 18 18 18 18 18 18 18 18 18 17 18 17 16 16 15 14 14 13 14 16 16 16 16 16 15 16 15 15 15 15 14 14 13 13 13 13 13 12 12 12 11 11 11 11 10 10 10 11 11 10 10 10 10 10 10 9 9 9
20 20 20 20 20 20 19 19 20 20 20 20 19 19 19 19 19 19 19 19 19 18 18 18 18 18 18 18 18 18 18 18 18 18 18 18 17 17 17 17 17 17 16 15 14 13 15 16 16 16 16 15 16 16 15 15 15 15 14 14 13 13 13 13 12 11 11 11 11 11 11 11 10 10 11 11 11 10 10 10 10 10 10 9 9
20 20 20 20 20 19 19 19 19 19 20 20 19 19 19 19 19 19 19 19 19 19 18 18 18 18 18 18 18 18 18 18 18 18 18 18 18 17 17 17 18 17 16 16 15 15 15 16 16 16 16 16 16 16 16 15 15 15 14 14 14 13 13 13 12 11 11 11 11 11 11 11 10 10 11 11 11 10 10 10 10 10 10 10 10
20 20 20 20 20 19 19 19 19 19 19 19 19 19 19 19 19 19 19 19 19 19 19 18 18 18 17 18 18 18 18 18 18 18 18 18 18 17 17 17 17 18 17 16 16 16 17 17 17 17 16 16 16 16 16 15 15 14 14 14 14 13 13 13 12 12 11 11 11 11 11 11 11 11 11 11 11 10 10 10 11 10 10 10 10
20 20 20 20 20 19 19 19 19 19 19 19 19 19 19 19 19 19 18 18 18 18 18 18 18 18 17 17 18 18 18 18 18 18 18 18 18 18 18 17 17 17 18 16 15 16 17 18 17 17 16 16 16 16 16 15 15 14 14 14 14 13 13 13 12 12 11 11 11 11 11 11 11 11 11 11 11 10 10 10 11 11 10 10 10
20 20 20 20 20 19 19 19 19 19 19 19 19 19 19 19 19 19 19 18 18 18 18 18 18 18 18 18 18 18 18 18 18 18 18 18 18 18 18 17 17 17 17 17 15 15 16 17 17 16 16 16 16 16 15 15 15 14 14 14 14 13 13 13 12 12 12 11 11 11 11 11 11 11 11 11 11 11 10 11 11 11 10 10 10
20 20 20 20 20 20 19 19 19 19 19 19 19 19 19 19 19 19 19 18 18 18 18 18 18 18 18 18 18 18 18 18 17 17 18 18 18 18 18 17 17 17 17 17 16 15 16 16 16 16 16 16 16 16 15 15 15 15 14 14 14 14 13 13 13 12 12 12 11 11 11 11 11 11 11 11 11 11 10 11 11 11 10 10 10
20 20 20 20 20 19 19 19 19 19 19 19 19 18 19 19 19 19 19 18 18 18 18 18 18 18 18 17 18 18 18 17 17 17 17 17 17 18 18 17 17 17 17 18 17 17 16 16 15 16 16 16 16 16 15 15 15 15 15 14 14 14 13 13 13 13 12 12 12 12 11 11 11 11 11 11 11 11 11 11 11 11 11 10 10
20 20 20 20 19 19 19 19 19 19 19 19 19 18 18 19 19 19 18 18 18 18 18 18 18 18 17 17 17 18 17 17 17 17 17 17 17 17 17 18 18 18 18 18 18 18 17 16 15 16 16 16 16 16 15 15 15 15 15 14 14 14 13 13 13 13 12 12 12 12 12 12 12 11 11 11 11 11 11 11 11 11 11 10 10
20 19 19 19 19 19 19 19 19 19 19 19 19 18 18 18 19 18 18 18 18 18 18 18 18 18 18 18 18 18 17 17 17 17 17 17 17 17 18 18 18 18 18 18 18 18 18 17 16 15 16 16 15 15 15 15 15 15 14 14 14 14 13 13 13 13 12 12 12 12 12 12 12 12 12 11 11 11 11 11 11 11 11 10 10
20 19 19 19 19 19 19 19 19 19 19 19 19 18 18 18 18 18 18 18 18 18 18 18 18 18 18 18 18 18 18 18 17 17 17 17 17 17 18 18 18 18 18 18 18 18 18 18 17 16 15 15 15 15 15 15 15 15 14 14 14 13 13 13 13 13 12 12 12 12 12 12 12 12 12 11 11 11 11 11 11 11 11 11 10
19 19 19 19 19 19 19 19 19 19 19 18 18 18 18 18 18 18 18 18 18 18 18 18 18 18 18 18 18 18 18 18 18 18 17 17 17 17 18 18 18 18 18 18 18 17 17 17 16 16 15 15 15 15 15 15 15 15 14 14 13 13 13 13 13 13 13 13 13 13 12 12 12 12 12 12 11 11 11 11 11 11 11 11 10
20 20 20 19 19 19 19 19 19 19 18 18 18 18 18 18 18 18 18 18 18 17 17 17 18 18 18 18 18 18 18 18 18 18 18 17 17 17 17 18 18 18 18 18 17 17 17 16 15 15 15 15 15 15 15 15 14 14 14 14 14 13 13 13 13 13 13 13 13 13 12 12 12 12 12 12 12 12 11 11 11 11 11 11 11
20 20 20 19 19 19 19 19 19 19 18 18 18 18 18 18 18 18 18 18 18 17 17 17 18 18 18 18 18 18 18 18 18 18 18 18 18 17 17 17 18 18 18 17 17 16 16 15 15 15 14 14 15 14 14 14 14 14 14 14 14 14 13 13 13 13 13 13 13 13 12 12 12 12 12 12 12 12 12 12 12 12 11 11 11
20 19 19 19 19 19 19 19 19 19 18 18 18 18 18 18 18 18 18 17 17 17 17 17 18 18 18 18 18 18 18 18 18 18 18 18 18 17 17 17 18 18 18 17 17 16 15 15 14 14 14 14 14 15 15 15 15 15 14 13 13 14 13 13 13 12 13 12 12 12 12 12 12 12 12 12 12 12 12 12 13 12 12 11 11
20 19 19 19 19 19 19 19 19 18 18 18 18 18 18 18 18 18 18 18 17 17 17 17 18 18 18 18 18 18 18 18 18 18 18 17 17 17 17 17 18 18 18 17 17 16 16 15 15 15 14 14 14 15 15 15 15 15 14 14 13 13 13 13 12 12 13 12 12 12 12 12 12 12 12 12 12 12 12 13 13 13 13 12 11
19 19 19 19 19 19 19 19 19 19 19 18 18 18 19 19 18 18 18 18 18 18 18 18 18 18 18 18 18 18 18 18 18 18 18 17 17 17 17 17 17 17 18 18 18 17 16 16 15 15 15 15 15 15 15 15 15 14 14 14 14 13 13 13 12 12 12 12 12 12 12 12 12 12 12 12 12 13 13 13 13 13 13 12 11
19 18 18 19 19 19 19 19 19 19 19 18 18 18 19 19 18 18 18 18 18 18 18 18 18 18 18 18 18 18 18 18 18 18 17 17 17 17 17 17 17 17 17 18 18 18 18 17 16 16 16 16 15 15 15 15 15 14 14 14 14 13 13 13 13 13 12 12 12 12 12 12 12 12 12 12 13 13 13 13 13 13 13 12 12
19 18 18 18 19 19 19 19 19 19 19 19 18 18 19 19 19 18 18 18 18 18 18 18 18 18 18 18 18 18 18 18 17 17 17 17 17 17 17 17 17 17 17 17 18 18 18 18 18 17 17 17 16 16 16 15 15 15 14 14 14 14 13 13 13 12 12 12 12 11 11 12 12 12 12 13 13 13 13 13 13 13 12 12 12
19 20 20 19 19 19 19 19 19 19 19 19 18 18 19 19 19 18 18 18 18 18 18 18 18 18 18 18 18 18 18 17 17 17 17 17 17 16 16 16 16 17 17 17 17 17 18 18 18 18 17 17 17 16 16 15 15 15 15 15 14 14 13 13 12 12 12 12 11 11 11 12 12 12 12 12 12 13 13 13 13 12 12 12 12
18 20 20 20 19 19 19 19 19 19 19 19 18 18 18 19 19 18 18 18 18 17 18 18 18 18 18 18 18 18 18 17 17 17 17 17 16 16 16 16 16 16 17 17 17 17 17 17 17 17 17 17 16 16 16 16 15 15 15 14 14 13 13 12 12 12 12 11 11 11 11 12 12 12 12 12 12 12 13 13 12 12 12 12 12
17 18 18 19 20 20 20 19 19 18 19 19 18 18 18 18 18 18 18 17 17 17 17 18 18 18 18 18 18 18 17 17 17 17 17 16 16 16 16 16 16 16 16 16 16 16 16 17 17 16 16 16 16 16 16 16 15 15 14 13 13 13 12 11 11 11 11 11 11 11 11 11 12 12 12 12 12 12 12 12 12 12 12 12 12
16 17 17 18 18 19 19 19 19 18 18 19 18 18 18 18 18 18 17 17 17 17 17 17 17 17 18 18 18 17 17 17 17 17 17 16 16 16 16 15 15 15 15 15 15 16 16 16 16 15 15 15 16 16 16 15 15 15 14 14 13 13 12 12 11 11 11 11 12 11 11 11 12 12 12 12 12 12 12 12 12 12 12 12 12
16 16 16 16 16 17 18 19 19 18 18 18 18 18 18 18 18 18 17 17 17 16 16 17 17 17 17 17 17 17 17 17 17 17 16 16 16 16 16 15 15 15 15 15 15 15 15 15 15 15 15 15 15 15 16 15 15 15 14 14 14 13 13 13 12 11 11 12 12 12 11 12 12 11 12 12 11 11 12 12 12 12 12 12 12
Height
834 835 837 838 840 840 841 842 843 844 845 846 847 848 849 850 852 854 855 856 857 858 858 859 859 859 859 860 861 862 862 863 864 864 865 865 866 866 867 868 869 869 869 869 869 870 870 870 870 870 870 870 869 869 869 869 870 869 869 869 869 868 867 867 866 866 865 865 865 864 864 864 863 862 861 860 859 858 857 856 855 854 853 852 851
834 835 836 837 839 839 840 840 841 843 844 845 846 848 849 849 851 853 855 856 856 857 857 858 858 859 860 861 861 862 863 863 864 865 865 866 866 867 868 869 870 870 870 870 870 870 871 871 871 871 871 871 870 870 870 870 870 870 870 870 869 869 868 868 867 866 866 866 866 865 865 864 864 863 862 861 860 859 858 857 856 855 854 853 851
833 835 835 837 838 838 839 839 840 842 843 845 846 847 848 849 850 852 854 855 855 856 856 857 858 859 860 861 861 862 863 864 865 865 866 866 866 867 869 870 870 871 871 871 871 871 871 872 871 871 872 872 871 871 871 871 871 871 871 871 870 870 869 868 868 867 867 867 866 866 866 865 864 864 863 862 861 860 859 858 857 856 855 853 852
833 834 835 836 836 837 838 838 839 840 842 844 845 846 847 849 850 851 853 854 854 855 856 857 857 858 860 861 861 862 863 864 865 866 866 866 867 868 869 870 870 871 872 872 872 872 872 872 872 872 872 872 872 872 872 872 872 872 872 872 871 871 870 869 869 869 868 868 867 867 866 866 865 864 864 863 862 861 860 859 858 856 855 854 853
833 833 834 835 836 836 837 838 839 840 841 843 844 846 847 848 849 851 852 853 853 854 855 857 858 858 860 861 861 861 862 864 865 866 867 867 867 868 869 870 871 871 872 872 873 872 872 873 873 873 873 873 873 873 873 873 873 873 873 872 872 871 871 870 870 870 869 869 868 868 867 866 866 865 864 863 862 862 861 860 859 857 856 855 854
832 833 834 835 835 836 836 837 838 840 841 842 843 845 846 847 848 850 851 852 852 853 855 856 858 859 859 860 861 861 862 864 865 866 867 868 868 868 869 870 870 871 872 872 873 873 873 873 873 873 873 873 874 874 874 873 873 873 873 873 873 872 872 871 871 870 870 870 869 869 868 867 866 866 865 864 863 862 861 860 859 858 857 856 854
831 832 833 834 834 835 835 837 838 839 841 842 843 844 845 846 847 849 850 850 851 853 854 856 857 859 859 860 861 862 863 864 865 866 867 868 868 869 869 870 870 871 872 872 872 873 873 873 874 874 874 874 874 874 874 874 874 874 874 873 873 873 873 872 871 871 871 870 870 869 868 868 867 867 866 865 864 863 862 861 860 859 857 856 855
830 831 832 833 833 834 835 836 838 839 840 841 842 843 845 846 847 848 848 850 851 853 855 856 857 859 859 859 861 862 863 864 865 866 867 868 868 869 869 870 870 871 871 872 872 872 873 873 874 874 874 874 874 874 874 874 874 874 874 874 874 873 873 873 872 872 872 871 870 870 869 868 868 867 867 866 865 864 863 862 861 859 858 856 855
829 830 831 832 833 833 834 836 837 838 839 841 842 843 844 846 847 847 848 849 851 853 855 857 858 858 859 860 861 862 863 864 865 866 867 867 868 868 869 870 870 871 871 872 872 872 873 873 874 874 874 874 874 874 874 874 874 874 874 874 874 874 874 873 873 872 872 872 871 870 869 869 868 868 867 866 866 865 864 862 861 860 858 857 856
828 829 830 831 832 833 834 835 836 837 839 840 841 843 844 845 846 847 847 848 851 853 854 856 857 858 859 860 861 862 863 864 864 865 866 867 868 868 869 870 870 871 871 871 872 872 872 873 873 874 874 874 874 874 874 874 874 874 874 874 874 874 874 873 873 873 873 872 871 871 870 869 869 868 867 867 866 865 864 863 862 860 859 858 856
827 828 829 830 831 832 833 834 835 836 838 839 841 842 843 845 846 847 848 848 850 852 853 855 857 859 860 861 861 862 863 864 865 865 866 867 867 868 868 869 870 871 871 871 872 872 872 873 873 874 874 874 874 874 874 874 874 874 874 874 874 874 874 874 873 874 873 873 872 871 870 869 869 868 868 867 867 866 865 863 862 861 859 858 857
825 826 828 829 830 831 832 833 834 835 837 838 840 841 842 844 845 846 847 849 850 851 852 854 856 859 860 861 862 863 864 864 865 865 865 866 867 868 868 869 869 870 871 871 872 872 872 873 873 873 874 874 874 874 874 874 874 874 874 874 874 874 874 874 874 874 873 873 872 871 871 870 869 869 868 868 867 866 865 864 863 861 860 859 857
824 825 826 827 828 830 831 832 833 834 836 838 839 840 842 843 844 845 846 847 850 851 851 853 855 858 860 862 862 863 864 864 864 864 864 865 866 867 867 868 869 869 870 871 871 872 872 872 873 873 874 874 874 874 874 874 874 874 874 874 874 874 874 874 874 874 873 873 872 872 871 870 870 869 868 868 867 866 865 864 863 862 861 859 858
822 823 825 826 827 828 829 830 831 833 835 837 838 839 841 842 842 844 845 846 848 850 850 851 854 856 858 861 863 864 864 864 864 864 864 864 865 866 867 867 868 869 870 870 871 871 872 872 873 873 873 874 874 874 874 874 874 874 874 874 874 874 874 874 874 874 873 873 872 872 871 871 870 869 869 868 867 867 866 865 864 863 861 860 858
821 822 823 824 825 826 828 829 830 832 834 835 837 838 839 840 841 842 844 846 847 849 850 850 852 855 858 861 863 864 865 865 864 865 864 864 864 865 866 866 867 868 869 869 870 871 871 871 872 873 873 873 874 874 874 874 874 874 874 874 873 873 874 874 874 874 874 873 873 872 872 871 870 870 869 868 868 867 866 865 864 863 862 860 859
819 820 821 822 823 825 827 828 829 831 832 834 835 836 837 838 839 840 842 844 846 848 849 850 850 853 857 861 864 865 866 865 864 865 865 864 864 864 865 865 866 867 868 868 869 870 870 870 871 872 872 873 873 873 874 874 874 874 874 874 873 873 873 873 874 874 874 873 873 872 872 871 871 870 869 869 868 867 867 866 865 863 862 860 859
817 819 819 820 822 824 826 827 828 830 831 832 833 834 835 836 837 838 839 841 843 846 848 849 849 850 853 857 862 865 863 862 863 864 864 864 864 864 864 865 865 866 867 867 868 869 869 870 870 871 871 872 873 873 873 874 874 874 874 873 873 873 873 873 873 874 874 873 873 872 872 871 871 870 869 869 868 868 867 866 865 864 862 861 859
815 817 818 819 820 822 825 826 827 828 829 830 831 832 834 835 836 837 838 839 841 844 846 848 850 850 850 852 855 857 857 860 863 863 863 863 863 863 863 864 864 864 865 866 867 867 868 869 869 870 870 871 872 872 872 873 873 873 873 873 873 873 873 873 873 873 873 873 873 872 872 872 871 870 870 869 869 868 867 866 865 864 862 861 859
814 815 816 817 819 821 823 824 825 826 827 828 829 830 832 834 835 836 837 838 839 841 843 846 848 849 850 850 851 851 853 856 858 860 862 862 861 862 862 863 863 864 864 865 866 866 867 868 868 869 869 870 871 872 872 872 873 873 873 873 873 872 872 872 872 873 873 873 873 872 872 872 871 871 870 869 869 868 867 867 865 864 863 861 859
812 813 814 815 817 819 821 823 824 825 825 826 827 829 831 833 834 835 835 837 838 839 841 843 845 846 848 850 850 851 851 852 853 855 857 859 860 860 861 861 862 862 863 864 864 865 866 866 867 867 868 869 869 870 871 871 872 872 872 872 872 872 872 872 872 872 872 872 872 872 872 872 871 871 870 869 868 868 867 867 865 864 863 861 859
810 811 812 813 815 817 819 821 821 822 823 824 826 827 829 831 832 833 834 835 836 838 839 840 842 843 846 847 849 850 852 852 852 853 854 856 858 859 859 860 861 860 861 862 863 864 864 865 866 866 867 867 868 869 870 870 871 871 871 871 872 872 872 872 871 871 871 871 872 872 872 872 871 871 870 869 868 868 867 867 866 864 863 861 859
807 809 810 811 813 815 817 818 819 820 821 822 824 826 827 829 830 831 832 833 835 836 837 839 840 842 843 845 847 848 850 851 851 852 853 854 855 855 856 858 858 857 858 860 861 862 863 864 864 865 866 866 867 868 869 869 870 870 870 871 871 871 871 871 870 870 870 870 870 871 871 871 871 870 870 869 868 868 867 867 865 864 863 861 859
804 806 807 809 810 812 814 816 817 818 819 820 822 823 825 827 829 830 831 832 833 835 836 838 839 840 842 842 843 844 846 847 848 849 850 851 852 853 854 855 856 855 856 858 859 861 862 862 863 864 865 866 866 867 867 868 869 869 870 870 871 871 871 870 870 870 869 869 869 870 870 870 870 870 869 869 868 868 867 866 865 864 862 861 859
801 803 804 806 807 809 812 813 815 816 817 818 820 822 824 826 827 828 829 830 831 833 834 836 837 838 839 840 841 842 843 844 845 847 848 849 850 851 852 854 855 855 855 857 858 859 860 861 862 863 864 865 865 866 866 867 868 868 869 870 870 870 870 870 869 869 869 869 869 869 869 869 869 869 869 868 868 868 867 866 865 864 862 861 859
796 798 800 802 803 805 808 810 811 813 814 815 817 820 822 824 825 826 827 828 829 831 832 833 834 835 837 838 839 840 841 843 844 845 847 848 848 849 851 853 853 853 854 856 857 858 858 859 860 861 863 864 864 864 865 866 866 867 868 869 869 870 870 869 869 869 868 868 868 868 868 868 868 868 868 868 868 867 867 866 865 864 862 861 859
792 794 796 799 800 802 804 806 809 810 812 813 815 817 819 821 822 823 824 825 827 828 830 831 832 833 835 836 837 838 839 841 843 844 845 846 846 848 850 852 853 853 854 855 856 856 856 857 858 859 861 862 862 863 863 864 865 866 867 868 868 869 869 869 869 868 868 867 867 867 867 867 867 868 868 868 868 867 867 866 865 864 862 860 859
788 791 794 796 798 799 801 804 806 808 809 811 812 814 816 818 819 820 821 823 824 826 827 828 830 831 832 834 835 836 837 839 841 842 842 844 845 846 848 850 853 854 854 854 855 855 854 855 856 857 859 860 860 861 862 862 864 865 866 867 867 868 868 868 868 868 867 867 867 867 867 867 867 867 867 867 867 867 866 866 865 863 862 860 859
786 788 790 792 795 796 798 800 802 805 806 808 809 811 813 815 816 817 818 820 821 822 824 826 827 828 830 832 833 834 835 837 839 840 841 842 843 845 846 847 850 852 854 854 853 853 853 854 854 855 856 857 858 859 860 861 862 863 865 866 866 867 867 867 867 867 867 867 866 866 866 866 866 866 866 867 867 866 866 865 864 863 862 860 858
782 785 787 789 791 793 795 797 799 801 803 804 806 808 810 811 812 814 815 816 818 819 821 823 824 826 828 829 830 832 833 835 836 838 839 840 841 843 844 845 846 849 851 852 851 850 850 851 851 852 854 855 857 858 858 859 860 862 863 864 865 866 866 866 866 867 867 866 866 866 865 865 865 866 866 866 866 866 865 865 864 862 861 859 858
779 781 784 786 788 790 792 794 796 798 800 801 803 805 806 808 809 810 812 813 815 816 818 819 821 823 825 827 828 830 831 833 834 835 837 838 839 841 842 844 844 845 847 848 848 846 846 848 848 849 851 853 854 856 857 858 859 860 862 863 864 865 865 865 865 866 866 866 866 865 865 865 865 865 865 865 866 865 865 864 863 862 860 859 858
776 778 780 782 784 786 788 791 793 795 797 798 800 802 803 805 806 807 809 810 812 813 814 816 818 820 822 824 825 827 829 830 831 833 835 836 837 839 840 841 842 842 843 845 845 843 844 845 845 846 848 850 852 854 855 856 858 859 861 862 863 863 864 864 864 865 865 865 865 865 864 864 864 864 864 865 865 865 865 864 862 861 860 859 857
772 774 776 778 780 782 785 787 789 791 794 795 797 799 800 802 803 805 806 807 808 809 811 813 815 817 819 821 822 824 826 827 829 830 832 833 835 836 838 839 839 840 841 842 842 841 842 842 843 844 846 848 850 852 853 855 856 858 860 861 861 862 863 863 863 863 864 864 864 864 864 863 864 864 864 864 864 864 864 863 862 861 860 858 857
769 770 772 774 776 779 782 784 786 789 790 792 794 796 798 799 800 802 803 804 805 806 808 810 811 813 815 817 819 821 823 824 826 827 829 831 833 834 835 836 837 838 839 839 839 840 840 840 841 842 844 846 848 850 852 853 855 856 858 859 860 861 861 862 862 862 862 863 863 863 863 863 863 863 863 864 864 863 863 862 861 860 859 858 857
765 767 768 771 774 776 779 781 784 786 788 790 792 794 796 797 798 799 800 801 803 804 805 806 808 810 812 814 816 818 820 821 823 825 827 829 830 831 833 833 834 835 836 837 837 837 838 838 839 840 842 844 845 847 850 851 853 855 856 857 858 859 860 860 861 861 861 861 862 862 862 862 862 862 863 863 863 862 862 862 861 860 859 858 857
762 764 765 768 771 774 777 780 782 785 787 789 791 792 793 795 796 797 797 798 800 801 802 803 804 806 808 811 813 815 817 818 820 822 824 826 827 828 830 831 831 832 833 834 834 835 835 836 837 838 840 841 843 845 848 850 852 853 854 855 856 857 858 859 859 860 860 860 860 861 861 861 861 861 862 862 862 862 861 861 860 859 858 858 857
760 762 764 767 770 773 776 778 781 783 785 787 790 791 792 793 794 795 796 797 798 798 799 800 802 803 805 807 809 812 814 816 817 819 821 823 824 825 827 828 829 830 831 832 832 832 833 834 836 837 838 840 842 844 846 849 851 852 853 854 855 856 856 857 858 858 859 859 859 860 860 860 860 860 861 861 861 861 860 860 860 859 858 858 857
758 760 763 765 769 772 774 777 779 782 784 787 788 790 792 793 794 794 795 795 796 796 797 798 799 800 802 804 806 809 811 812 814 816 818 819 821 822 824 825 826 828 829 830 830 830 831 832 834 836 838 839 841 843 845 847 849 851 852 852 853 854 855 855 856 857 857 858 858 858 859 859 859 859 860 860 860 860 859 859 859 858 857 857 857
756 758 761 764 767 769 772 775 778 781 783 786 787 789 791 793 794 794 795 795 795 795 796 796 797 798 799 801 804 806 808 809 811 813 815 816 818 819 821 822 824 826 827 828 828 829 829 830 832 834 837 839 840 842 844 846 847 848 849 851 852 852 853 854 855 855 856 856 857 857 858 858 858 858 858 858 858 858 858 858 858 857 857 857 856
756 756 758 761 763 766 770 773 776 779 782 784 786 788 791 792 793 794 794 795 795 795 795 795 796 796 797 799 801 803 805 806 808 810 812 814 815 816 818 820 822 823 824 825 826 827 828 829 831 832 834 837 839 840 843 845 846 847 848 848 849 850 851 852 853 853 854 855 856 856 856 857 857 857 857 857 857 857 857 856 856 855 855 855 855
755 753 753 757 760 764 768 771 774 777 780 782 784 786 789 791 792 793 793 794 794 794 794 794 795 795 796 797 799 800 802 803 805 807 809 811 812 814 816 818 820 821 822 823 824 825 826 828 829 831 833 836 838 839 841 843 844 845 845 846 847 848 849 850 851 852 852 853 854 854 855 855 855 855 855 855 855 855 855 854 854 853 853 854 854
755 753 751 754 759 762 765 769 772 775 777 778 780 783 786 788 790 791 792 793 793 793 793 793 794 794 794 795 797 798 800 801 803 805 806 808 809 811 813 816 817 818 819 820 821 823 824 826 828 830 832 834 835 837 838 839 840 841 843 844 845 846 847 848 849 850 851 851 852 853 853 853 854 853 853 853 853 853 853 852 852 851 851 852 852
754 755 753 753 757 760 763 766 769 772 773 774 776 779 782 785 787 789 791 792 793 793 793 793 792 792 793 794 795 796 798 799 801 802 804 805 807 808 811 813 815 816 816 818 819 820 822 824 826 828 829 831 832 833 834 836 838 839 841 842 844 845 846 847 848 848 849 850 850 850 851 851 852 852 851 851 851 851 851 851 850 849 850 850 851
751 753 753 753 755 758 762 765 767 769 770 771 773 776 779 782 784 787 788 790 791 792 792 791 791 791 791 792 793 795 796 797 798 800 801 803 804 806 809 810 812 813 814 815 816 818 819 821 823 825 826 828 829 831 832 834 836 838 839 840 842 843 844 845 846 846 847 847 848 848 849 850 850 850 850 849 849 849 849 849 848 848 848 848 849
746 750 751 752 753 756 760 763 765 766 767 769 771 773 776 779 782 784 786 788 789 790 790 790 789 789 790 791 792 793 793 794 796 797 798 801 803 805 807 808 809 811 812 812 814 815 817 819 820 822 823 824 826 828 830 832 834 836 837 838 840 841 842 843 844 844 845 845 846 846 847 848 849 849 848 848 848 848 847 847 847 847 847 847 848
741 745 749 751 753 755 758 761 763 764 766 767 769 771 774 776 779 782 784 785 787 787 788 788 788 788 788 789 790 790 791 792 793 795 796 798 801 803 804 806 807 808 809 811 812 813 814 816 817 818 819 821 823 825 827 829 831 833 835 836 838 839 840 841 841 842 843 844 844 845 846 847 847 847 847 847 846 846 846 846 846 846 846 846 847
734 739 744 749 752 754 755 758 760 763 764 766 767 769 772 774 777 780 782 783 784 785 786 786 786 786 787 787 787 787 788 789 790 792 794 796 798 800 802 803 804 805 807 809 810 811 812 813 814 815 817 819 820 823 825 827 829 830 832 834 835 837 838 839 840 841 842 842 843 844 844 845 845 845 845 845 845 845 845 845 845 845 845 845 846
727 730 734 740 746 750 753 756 759 760 762 764 765 767 770 772 775 778 780 781 782 783 784 784 784 785 785 785 785 785 785 786 787 789 791 794 796 798 799 800 802 803 805 806 808 809 810 811 812 814 815 817 819 821 823 825 826 828 829 831 833 835 836 838 839 840 840 841 842 842 843 843 843 844 844 844 844 844 844 844 844 844 844 844 845
723 724 725 730 737 743 747 752 755 756 758 761 763 765 768 771 773 776 777 778 779 780 781 782 782 783 783 783 783 783 783 784 785 787 789 792 794 796 797 799 800 801 802 804 805 807 808 810 811 813 814 816 818 820 822 823 825 826 828 830 832 834 835 836 837 838 839 839 840 841 841 841 842 843 843 843 844 844 843 843 842 843 843 843 843
721 721 722 725 730 735 739 743 748 750 753 757 760 763 767 769 771 773 774 775 776 777 778 779 780 780 780 781 781 781 781 781 782 784 787 789 792 794 795 797 798 799 801 802 804 805 807 808 810 811 813 814 816 818 820 821 823 824 826 829 830 832 833 834 835 836 837 837 838 839 839 839 840 841 842 843 843 843 843 842 842 842 842 842 842
720 719 721 724 727 730 732 736 740 744 748 752 756 760 763 766 769 771 772 773 773 774 775 776 777 777 778 778 778 778 778 779 780 782 784 787 789 791 793 795 796 797 798 800 801 803 805 806 807 809 811 813 814 816 817 819 820 821 823 825 827 829 831 832 833 834 835 836 836 837 838 837 838 840 841 842 842 842 842 842 842 842 842 842 842
717 718 721 725 727 729 730 732 734 737 741 746 751 755 758 762 765 767 769 770 770 770 771 773 774 774 775 775 775 775 775 776 778 780 782 784 786 788 791 793 794 795 796 798 799 801 802 804 805 807 809 810 812 814 815 816 818 819 820 822 824 826 828 829 830 832 833 833 834 835 835 835 836 838 839 840 841 841 841 841 841 841 841 841 841
Wind_Speed
25 23 22 20 17 16 15 14 14 14 15 17 18 18 17 17 16 16 15 15 15 14 14 15 14 12 12 14 16 15 13 12 11 10 8 8 10 12 13 14 13 12 12 12 12 11 11 11 11 12 12 12 13 13 13 13 13 13 13 14 13 14 14 15 15 15 15 16 15 15 16 16 16 16 17 17 17 17 17 18 19 19 20 20 21
26 24 23 20 18 17 16 16 16 15 15 16 18 19 18 17 16 15 15 15 15 15 16 18 16 13 13 16 16 15 13 11 10 9 9 10 12 14 14 13 12 11 11 11 11 11 11 11 11 11 11 11 12 12 12 12 12 12 12 13 13 13 14 14 14 14 15 14 14 15 15 15 16 16 17 17 17 17 17 18 19 20 20 21 21
26 26 24 21 19 18 17 16 17 17 16 16 18 19 18 17 16 15 14 13 14 16 19 21 18 16 16 17 16 15 13 11 10 9 10 12 13 15 14 13 12 12 11 10 10 10 10 10 10 10 10 10 11 11 11 11 11 11 11 11 12 12 13 14 13 14 14 14 14 14 14 15 15 16 16 16 17 17 17 18 18 19 20 21 22
27 27 24 22 20 19 17 16 17 17 16 17 18 18 18 17 15 13 13 12 13 17 22 22 20 19 19 18 16 15 14 12 10 10 11 12 13 14 13 13 12 11 11 11 10 10 9 9 9 9 10 9 9 9 9 9 10 10 10 10 10 11 11 12 13 13 13 13 13 14 14 14 14 15 15 16 16 16 17 18 18 19 20 20 21
27 27 25 22 20 20 19 17 16 16 17 18 18 18 18 17 15 13 13 13 14 19 23 22 21 22 22 18 15 14 13 12 10 10 11 11 12 12 12 11 10 9 11 11 9 9 9 9 9 8 8 8 8 7 8 8 8 9 9 9 9 9 10 11 11 12 12 12 13 13 13 13 13 14 14 15 16 16 16 17 17 18 19 20 20
26 26 25 22 20 20 20 18 15 15 16 18 18 18 18 16 14 13 14 15 18 23 24 22 23 24 22 18 16 13 12 12 10 9 10 10 11 11 11 9 8 8 9 10 10 9 9 8 8 8 8 7 7 7 7 7 8 8 8 8 8 8 8 9 10 10 11 11 12 12 12 12 13 13 14 15 15 16 16 16 17 17 18 19 20
27 26 27 24 21 21 20 18 16 16 16 17 18 18 16 15 13 13 14 19 24 25 23 23 25 25 22 20 17 15 13 12 12 10 10 11 11 11 10 7 7 7 7 9 10 11 10 9 8 7 7 7 7 7 6 6 6 6 6 6 6 7 7 7 9 9 9 10 10 11 12 12 12 12 13 14 15 15 15 16 16 17 18 19 20
28 26 26 26 23 22 21 18 17 18 17 18 19 18 17 15 14 14 18 25 27 26 24 25 26 24 22 21 19 16 14 13 12 11 11 11 12 12 10 7 7 6 5 6 8 10 10 9 9 8 7 7 7 7 6 5 5 5 5 4 5 6 6 5 7 8 8 9 9 10 11 11 11 12 12 13 14 15 15 16 16 17 18 18 19
27 25 25 26 24 23 21 19 19 19 19 19 19 19 19 17 16 19 24 28 28 27 26 26 25 23 22 21 20 17 15 15 14 12 11 12 13 12 10 8 7 6 4 5 6 7 8 8 8 7 7 6 6 7 6 5 5 4 4 4 4 4 4 4 5 6 7 7 8 9 10 10 11 11 12 12 13 14 14 15 16 17 18 18 19
26 25 26 25 23 22 20 20 21 20 20 20 20 20 20 18 21 26 27 28 29 29 27 26 23 21 20 18 17 15 14 16 17 14 13 13 13 12 11 9 8 6 5 5 5 6 7 8 8 6 5 4 4 6 6 5 4 3 3 2 3 3 3 3 4 5 5 6 7 8 8 9 10 10 11 11 12 13 14 15 16 16 17 18 18
27 26 28 27 24 22 21 21 21 22 22 20 20 22 21 21 25 27 28 27 28 28 27 26 23 20 19 15 13 13 14 16 17 16 15 14 14 12 11 10 9 8 6 6 5 6 8 9 8 7 5 4 3 4 5 5 4 3 3 2 2 3 2 2 2 4 4 4 6 7 7 8 9 9 10 10 11 12 13 14 15 16 17 17 18
28 27 29 29 26 25 23 22 21 21 22 21 21 22 22 24 25 25 28 27 26 28 27 26 24 20 17 15 14 13 15 16 14 14 18 18 16 13 11 11 10 9 8 6 6 6 8 7 6 7 6 5 4 3 3 3 3 2 3 3 2 3 2 1 1 2 3 4 5 5 6 7 8 8 9 9 10 12 13 14 15 16 17 17 18
28 28 30 29 27 25 24 25 23 22 22 22 23 22 22 25 24 23 25 27 27 28 28 28 24 18 14 12 12 12 13 13 10 10 16 19 17 15 13 12 11 10 9 7 6 6 6 6 5 6 6 5 5 3 2 2 1 1 2 3 3 3 2 2 2 2 2 3 4 4 5 6 7 8 8 8 9 11 12 13 14 15 16 17 18
29 29 30 28 27 25 25 26 25 23 22 23 24 22 22 25 24 23 24 26 28 30 31 27 20 17 15 11 8 7 8 8 8 9 12 15 15 16 15 14 12 11 11 10 8 6 6 6 6 6 5 5 4 4 4 2 1 1 1 3 3 3 3 2 2 2 2 2 3 4 4 5 6 6 7 7 8 10 12 13 14 15 16 17 17
30 30 29 28 28 26 25 26 27 25 24 25 25 23 24 26 26 25 24 26 27 30 32 25 19 18 15 7 3 4 3 4 8 11 12 13 13 14 15 15 12 11 12 11 10 8 7 8 8 8 7 6 6 5 4 4 3 1 2 3 3 3 4 3 2 2 2 2 3 3 3 4 4 5 6 6 8 10 11 12 13 14 16 17 17
32 31 29 28 28 28 27 27 28 27 26 27 27 26 26 28 28 27 26 26 25 29 29 24 23 20 11 4 2 3 1 5 8 10 12 12 12 14 14 14 13 12 13 12 10 10 9 9 9 9 9 7 7 7 7 6 5 4 2 2 2 2 4 4 3 3 3 3 2 2 3 3 3 4 5 6 8 10 11 12 13 14 15 16 16
34 32 31 29 29 29 28 29 29 28 29 29 29 28 28 30 30 28 29 29 26 28 26 21 23 25 15 6 4 2 2 6 9 9 11 12 12 15 15 14 14 14 14 13 12 12 11 11 11 11 11 9 7 8 9 9 8 6 4 3 2 2 3 4 4 4 3 3 3 2 2 3 3 3 4 6 7 9 10 11 12 14 15 15 16
34 33 31 30 30 31 29 30 30 30 31 31 30 29 29 31 32 30 30 31 29 28 26 22 22 24 19 11 7 4 4 9 7 4 9 12 12 15 17 16 17 16 15 15 14 14 14 13 14 14 13 11 9 10 11 11 10 8 6 5 4 3 3 3 5 5 4 4 3 3 2 2 2 2 4 5 6 8 10 11 12 13 14 15 15
34 33 32 30 31 32 29 30 32 32 33 31 30 30 31 32 32 31 31 30 31 29 27 26 23 22 19 14 10 6 7 13 9 3 5 8 11 15 18 18 18 18 17 17 15 16 17 16 15 15 15 13 11 11 12 12 12 10 8 6 5 4 3 3 5 6 5 4 4 3 2 2 2 2 3 4 5 7 9 10 12 13 14 15 15
34 34 33 30 32 33 30 31 34 34 34 33 31 31 32 33 32 31 31 31 31 31 30 29 26 24 21 15 10 6 10 16 18 12 5 3 7 12 17 19 19 19 18 19 18 18 18 18 17 16 15 13 11 11 13 13 13 12 10 8 6 5 4 5 5 7 7 6 4 3 2 2 1 2 3 3 3 6 9 9 11 13 14 15 15
35 35 34 31 33 34 31 33 36 36 35 33 33 32 32 34 33 32 32 31 32 31 30 31 30 27 24 19 13 9 11 15 19 17 7 4 4 5 13 16 17 21 21 20 21 21 20 19 19 19 15 13 12 12 12 13 14 14 12 10 8 7 6 6 6 8 9 8 5 3 2 2 1 1 2 2 2 5 8 9 11 13 14 15 15
36 36 35 33 34 34 31 34 37 36 35 34 33 33 32 33 34 33 32 32 32 31 30 30 31 29 26 25 19 15 13 11 15 17 8 5 5 5 13 15 13 19 23 23 22 22 22 19 20 22 19 15 14 13 13 13 14 15 13 11 10 9 7 7 6 7 9 9 8 5 3 2 2 1 1 1 2 5 7 8 11 13 14 15 15
37 37 37 34 35 35 32 34 37 36 35 35 34 34 33 33 33 32 32 32 32 32 30 29 29 29 28 28 26 23 19 14 17 20 12 6 5 4 12 17 15 16 19 22 22 21 21 20 21 24 21 17 16 14 13 14 14 14 14 13 11 9 7 7 7 7 8 9 9 7 4 2 2 1 1 1 2 4 6 8 11 12 14 15 15
38 38 38 37 36 36 34 35 36 36 35 34 35 35 34 33 32 32 32 33 33 33 32 30 29 30 29 29 29 28 26 21 20 22 19 14 10 7 10 13 13 15 17 17 19 21 21 20 22 24 23 19 18 17 14 15 15 14 15 15 12 10 8 7 7 8 9 9 9 9 6 4 3 3 3 2 2 4 6 8 11 12 13 14 15
38 39 40 39 38 37 37 37 37 36 36 35 35 35 35 34 33 33 33 33 34 34 33 32 31 31 30 29 29 28 28 25 20 20 22 20 13 8 10 12 9 11 15 15 17 20 22 22 21 22 24 21 19 19 17 16 16 15 16 16 13 11 8 6 5 6 8 9 9 9 8 7 6 5 4 3 1 3 6 9 11 12 13 14 14
39 40 41 40 39 39 38 38 37 36 36 35 35 35 35 35 34 34 34 34 34 34 34 33 32 31 30 28 28 28 30 28 23 21 22 22 18 11 9 9 6 6 8 12 15 17 20 24 23 22 24 23 21 21 19 19 18 17 17 16 14 11 8 6 4 2 5 8 8 8 8 7 6 5 5 4 1 3 6 8 10 11 12 14 14
40 41 41 40 40 39 38 38 38 37 37 36 36 36 35 34 33 34 35 34 34 34 34 34 33 32 31 28 26 27 28 28 25 24 23 22 21 17 11 8 3 3 5 8 13 17 21 23 22 24 25 24 23 21 20 20 19 19 18 16 14 11 8 7 4 0 1 4 6 7 7 6 6 5 5 4 1 2 5 7 9 10 12 13 13
40 40 41 40 40 39 39 39 38 38 38 37 36 36 36 34 33 33 34 34 34 34 35 34 34 33 31 28 25 26 27 26 24 25 25 23 20 18 16 14 8 2 3 5 7 14 21 21 21 24 26 26 24 22 21 20 20 20 19 16 14 11 8 8 7 2 1 1 3 4 5 6 6 5 5 4 2 1 3 5 7 9 10 12 12
40 41 40 40 40 40 40 40 39 38 39 38 37 36 35 34 34 34 33 33 33 33 34 34 34 33 32 30 27 26 26 24 24 24 25 26 22 19 19 19 15 7 3 4 6 11 19 22 23 23 25 28 26 23 23 22 21 21 19 16 14 11 9 8 8 6 3 2 1 2 3 5 5 5 5 4 3 0 2 4 6 8 9 10 11
41 40 41 40 40 40 40 40 40 39 39 39 38 37 35 34 34 34 34 33 32 32 33 34 34 33 32 30 29 28 27 26 25 24 24 25 25 24 22 20 20 15 10 6 6 13 19 22 25 24 24 29 29 26 25 23 21 21 19 15 13 11 9 8 9 8 6 4 3 2 2 4 4 5 5 5 3 2 1 3 5 7 8 9 10
41 41 41 41 40 40 40 40 40 40 40 40 39 38 37 36 35 34 34 33 33 32 32 33 34 34 33 32 31 30 29 28 27 26 26 25 25 24 23 22 21 21 20 12 5 12 19 21 26 27 25 27 30 30 27 24 23 21 17 13 11 10 9 9 10 9 8 7 6 4 3 3 4 4 5 5 4 3 1 2 5 6 6 7 8
42 42 41 41 41 41 41 41 41 41 40 40 40 39 38 37 36 35 34 33 33 33 32 32 32 33 33 33 32 31 30 30 30 28 27 26 25 24 23 23 21 22 24 19 9 9 17 21 24 27 26 25 28 31 29 25 23 20 16 12 10 10 9 9 10 10 10 10 9 7 5 4 4 4 5 6 5 4 2 2 4 5 5 6 7
42 42 42 42 42 42 41 41 41 41 40 40 39 39 39 39 38 37 35 34 34 33 32 32 32 32 32 33 32 32 31 30 30 30 28 26 25 24 23 23 22 22 23 23 17 11 12 17 21 24 26 25 27 30 31 27 24 20 16 12 11 11 9 7 9 10 10 11 11 9 7 5 5 5 6 6 5 5 3 1 3 3 4 5 6
44 44 43 42 42 42 41 40 40 40 40 40 39 39 40 39 38 37 36 36 35 33 33 32 33 32 32 32 32 31 31 31 30 29 28 27 25 25 25 24 24 23 23 23 21 15 11 14 19 22 24 26 27 29 31 29 25 21 17 15 14 12 10 8 9 9 9 11 11 10 9 7 6 6 7 6 6 6 5 2 1 2 2 3 5
44 44 43 42 41 41 40 39 39 39 40 40 39 40 40 40 39 38 37 37 36 35 34 34 34 33 32 32 31 31 30 30 30 29 27 27 27 26 26 26 25 23 22 22 20 16 13 13 17 21 24 26 27 28 30 29 25 20 18 16 15 13 11 11 10 10 10 10 10 10 10 8 7 6 7 8 7 7 6 4 1 1 2 2 4
42 43 42 41 39 39 38 38 38 39 39 39 39 40 40 41 40 40 38 37 37 37 37 35 34 34 33 32 32 31 30 30 29 28 27 27 27 27 27 26 25 23 21 22 20 17 16 15 17 22 24 26 27 27 28 27 23 19 17 17 16 14 12 12 12 11 11 10 11 11 9 6 5 6 7 8 8 8 8 7 4 2 1 1 2
42 41 40 39 38 38 38 38 38 38 38 39 39 39 40 41 40 40 39 38 38 38 38 37 36 35 35 34 33 31 30 29 28 27 27 26 25 26 25 25 25 23 21 21 20 19 18 18 19 21 23 25 26 26 27 26 22 20 19 18 16 14 13 13 13 13 13 12 11 10 8 6 6 6 7 9 9 9 9 9 7 5 4 2 2
41 39 37 37 38 38 39 38 37 37 37 38 39 40 40 40 39 39 38 38 38 38 38 38 37 37 36 35 33 31 30 30 29 28 27 26 24 24 24 24 25 24 23 21 20 19 19 20 22 22 24 26 24 24 25 24 22 22 22 20 18 16 15 14 14 13 12 11 9 9 9 8 7 7 7 9 10 11 11 11 11 10 8 5 3
38 38 37 37 38 38 38 38 38 38 37 37 39 39 40 39 39 38 38 38 38 37 38 38 37 37 36 35 33 31 31 31 30 29 27 26 26 25 25 25 24 24 23 23 22 20 21 21 22 24 26 26 23 22 23 22 22 22 22 22 22 20 18 16 16 14 13 11 10 11 12 10 8 8 8 9 10 11 12 13 14 14 13 9 6
38 39 39 39 38 38 37 37 38 37 37 38 39 39 40 39 39 38 38 38 38 37 37 37 37 36 35 34 33 31 31 31 30 29 29 29 28 28 27 25 24 24 24 23 22 21 22 23 23 24 27 26 22 20 21 22 23 23 23 24 23 21 19 19 18 16 14 13 13 14 14 13 12 10 9 10 11 11 11 12 13 16 16 14 10
37 38 38 38 36 35 35 36 37 37 38 39 40 40 40 40 39 39 38 38 38 38 37 36 36 36 35 34 33 32 31 30 30 30 30 31 32 31 29 27 25 25 24 23 22 22 23 23 22 23 25 25 23 21 22 25 25 24 25 24 21 18 17 18 18 16 15 14 14 15 15 14 14 12 10 11 11 11 12 11 12 14 15 17 14
34 32 33 34 34 34 34 35 36 37 38 40 41 42 42 41 40 39 38 38 38 38 37 36 36 36 36 35 34 32 31 31 31 30 30 31 33 33 31 28 27 27 26 24 24 24 25 24 24 24 23 24 26 26 26 26 24 22 24 24 20 16 14 13 13 14 14 14 15 16 15 14 14 12 11 12 12 12 12 13 13 13 12 15 16
32 30 30 31 33 34 34 34 35 37 38 40 40 42 44 44 42 40 39 38 38 38 37 37 37 37 36 35 33 31 30 30 29 28 28 29 30 30 30 29 29 28 28 27 26 26 27 26 26 27 26 26 28 28 26 24 22 23 25 25 21 17 15 13 10 11 13 14 14 16 15 13 13 12 12 14 13 12 12 13 13 12 10 13 15
30 29 29 30 31 32 32 33 35 37 39 39 40 42 45 46 44 41 40 39 39 39 39 38 38 37 36 34 32 30 30 29 28 27 27 28 29 30 29 29 29 28 28 28 28 28 29 28 26 29 29 28 29 29 27 25 23 23 24 24 22 19 17 16 13 12 12 12 12 15 15 13 12 12 13 12 11 11 12 12 10 9 9 11 14
26 23 24 27 29 30 32 33 34 37 39 39 40 42 45 47 46 43 41 40 40 40 40 39 38 38 37 35 32 31 30 29 28 28 28 28 29 30 30 29 29 28 27 27 27 29 31 30 29 31 31 29 29 30 29 27 25 24 24 24 22 20 19 17 15 13 11 9 11 13 14 13 12 11 10 7 5 6 9 8 7 7 8 9 13
28 24 20 21 25 28 31 33 34 36 38 39 41 42 44 47 48 46 43 41 41 41 41 40 39 38 37 36 34 32 31 30 30 30 30 29 29 30 29 29 29 28 27 26 26 29 31 31 31 31 30 30 29 28 29 28 26 25 26 25 23 22 20 16 13 11 10 10 11 12 11 11 9 8 7 4 2 3 4 4 6 7 7 8 11
36 34 30 29 29 29 29 30 32 35 38 39 40 41 43 46 48 47 44 41 41 41 41 41 40 39 38 37 35 33 33 32 33 33 32 31 30 29 29 28 28 27 27 26 27 29 30 31 31 29 28 28 27 26 26 28 26 25 25 25 24 22 18 14 11 11 10 11 13 12 10 9 6 5 4 3 2 3 4 3 4 5 6 7 9
36 37 37 36 35 33 30 30 32 35 38 39 39 40 42 46 48 48 44 42 41 41 41 41 40 40 39 37 35 35 35 35 34 34 33 32 30 29 28 28 26 26 26 26 26 28 28 28 28 26 25 25 25 24 24 25 26 26 25 23 22 20 17 14 13 13 12 12 14 15 13 11 9 7 5 3 2 1 2 2 4 3 4 5 6
33 35 36 37 38 39 39 37 37 37 38 38 38 39 41 45 48 48 44 42 41 40 41 41 41 40 39 38 37 36 37 36 36 35 33 32 31 30 29 28 26 25 25 25 26 26 26 25 25 24 23 23 24 24 23 23 25 27 27 25 23 21 19 16 14 14 14 13 14 15 14 14 12 10 7 5 2 2 5 4 3 3 3 4 5
32 34 35 35 36 39 40 40 40 39 38 38 37 38 41 46 49 49 45 41 40 40 39 40 40 40 40 38 38 38 38 38 37 36 34 33 32 32 31 29 27 26 26 26 25 25 24 23 22 22 22 23 24 24 24 23 25 28 30 28 26 24 22 18 16 14 12 12 13 12 13 14 14 10 7 5 3 4 4 4 3 3 3 4 5
33 33 31 29 30 34 38 41 43 42 40 38 39 40 42 46 50 50 46 41 39 39 38 38 39 40 40 39 39 39 38 38 37 36 35 35 34 34 33 31 29 29 29 28 27 26 25 24 23 22 22 22 22 22 22 23 26 30 32 30 27 25 22 20 17 12 8 10 14 13 12 14 14 11 8 5 3 4 4 3 4 4 5 5 5
Wind_Direction
190 194 196 195 199 200 199 200 200 197 194 196 195 192 190 189 191 189 186 187 190 193 195 195 192 189 183 170 163 158 153 154 154 152 149 139 128 118 115 118 119 119 118 116 114 115 113 113 112 108 105 98 96 97 96 93 89 85 81 80 78 73 68 67 70 69 66 63 62 61 56 53 52 49 47 47 49 50 51 50 48 45 42 39 37
191 193 197 199 204 205 204 204 203 201 201 201 194 191 190 190 196 196 191 194 201 204 199 195 191 189 185 170 161 157 155 157 157 156 151 142 131 122 119 122 122 121 122 121 119 119 117 117 115 112 109 104 99 97 96 94 91 87 82 80 77 72 68 68 70 69 66 63 60 58 56 53 51 49 47 48 50 52 53 50 48 45 42 40 39
193 194 197 200 205 207 206 205 203 199 200 203 195 191 190 190 198 199 197 200 205 209 203 195 190 187 180 169 161 158 158 159 156 153 150 142 132 130 133 135 135 134 131 127 125 124 122 123 122 117 114 110 104 98 95 94 93 88 82 80 77 73 69 68 70 68 65 62 59 57 55 52 51 49 48 49 51 51 52 50 47 45 43 41 39
196 197 197 200 204 207 208 205 202 197 195 197 193 190 189 189 199 205 206 212 213 205 199 195 190 183 174 167 163 160 159 156 150 147 146 143 139 142 148 149 150 150 145 136 131 130 127 127 127 125 122 117 111 102 96 95 94 89 82 80 76 74 71 67 68 67 63 60 58 56 53 52 51 51 50 50 50 50 49 49 47 44 42 40 38
199 200 200 201 204 209 210 207 202 196 188 187 188 189 189 189 200 214 217 221 214 194 189 191 186 177 170 166 166 165 161 156 150 147 146 146 149 151 152 155 161 163 159 146 135 135 134 133 132 131 127 124 119 109 100 97 95 90 85 81 75 74 72 67 66 65 63 59 55 54 52 52 52 52 52 50 49 49 47 47 46 43 40 38 37
201 203 203 202 205 210 212 209 201 193 185 183 186 187 189 191 203 222 226 219 203 186 184 183 176 172 169 168 169 169 169 164 159 156 152 149 153 156 153 156 162 161 158 152 148 145 140 139 140 138 134 130 125 118 109 102 97 94 89 82 77 74 71 67 64 63 60 57 54 52 51 52 52 52 52 50 48 48 46 44 43 41 38 36 35
205 203 203 202 207 211 213 210 199 192 188 185 187 190 192 198 213 228 217 198 188 181 181 176 172 173 170 170 172 172 176 175 170 168 162 157 157 160 156 150 152 149 153 160 162 157 149 146 147 148 143 137 131 124 118 110 102 97 90 81 80 77 73 68 61 59 57 54 53 51 51 52 53 53 51 49 47 46 44 42 40 39 37 35 33
205 203 203 203 207 213 214 211 201 196 193 189 192 196 201 209 222 225 197 179 176 175 177 176 172 173 170 170 173 173 180 183 182 178 170 167 164 163 161 152 149 145 149 166 173 170 167 163 157 156 154 147 140 133 125 119 110 102 93 83 82 76 77 76 59 56 56 53 51 51 52 54 54 54 51 49 47 45 43 40 38 36 35 33 31
202 202 204 204 207 215 215 210 205 202 199 199 199 199 209 214 205 199 184 172 171 171 173 174 170 170 170 172 176 179 187 191 192 189 182 178 172 169 168 160 155 153 151 166 179 180 180 179 171 165 164 162 152 144 136 127 127 121 111 104 91 75 77 77 55 53 54 48 50 52 54 56 57 55 52 50 47 43 41 39 36 34 33 32 29
204 205 206 205 206 211 208 203 204 201 200 207 206 203 213 207 181 178 178 172 170 168 168 168 163 163 164 169 179 186 192 194 194 193 190 188 184 180 176 170 166 162 154 155 167 173 169 170 174 173 170 172 161 153 149 141 144 145 141 136 112 84 77 72 56 53 50 45 52 55 56 59 59 55 53 50 46 42 39 37 35 32 31 30 29
204 207 208 205 203 203 199 197 197 195 197 205 206 203 205 191 172 170 172 173 174 169 164 160 154 152 153 154 163 173 182 187 192 196 197 195 192 190 185 184 180 171 163 153 149 157 155 150 155 162 164 167 158 157 165 165 163 159 154 155 142 117 88 65 69 62 53 53 58 58 58 61 60 57 54 50 46 41 37 36 33 32 30 29 27
202 206 206 204 205 205 201 199 195 193 196 199 197 195 192 182 174 170 168 167 171 171 166 158 148 140 140 142 144 152 166 178 190 202 201 198 196 195 194 196 194 185 180 170 158 158 159 154 150 154 156 164 168 164 173 179 179 174 163 159 146 135 114 79 97 78 66 65 63 64 62 61 59 57 54 50 45 39 36 34 32 31 29 27 26
202 202 203 205 208 207 205 203 199 196 198 197 194 190 186 184 180 175 172 165 161 165 167 161 148 135 132 133 137 146 163 181 198 205 199 198 199 198 197 200 202 199 192 187 184 179 178 182 179 169 163 164 171 174 166 151 153 184 171 165 159 146 128 114 128 110 93 81 67 69 68 63 57 54 53 51 47 39 34 32 31 29 26 25 24
201 199 202 205 206 206 207 206 202 198 199 199 196 192 189 189 185 176 175 172 165 164 167 164 152 147 147 131 123 142 157 175 183 184 190 195 198 199 200 201 205 207 201 196 197 201 203 205 203 198 192 188 184 182 181 176 159 194 209 189 180 168 151 130 135 131 119 104 79 73 71 66 57 51 53 51 46 39 33 31 29 27 24 23 22
202 200 203 205 206 206 208 208 203 199 200 200 199 198 193 193 192 182 174 171 169 169 171 173 165 152 145 137 135 141 149 182 175 171 181 189 197 201 203 204 207 207 206 206 208 211 214 214 217 217 216 214 208 199 200 219 230 249 258 230 215 189 168 151 144 149 142 124 99 82 72 68 59 50 53 51 46 39 32 30 27 24 22 21 20
205 203 205 208 207 205 208 209 203 201 203 203 202 202 198 194 194 191 181 170 167 172 176 182 180 166 141 103 115 130 212 221 189 179 182 189 200 206 207 207 205 203 209 220 226 228 227 222 224 224 221 222 222 220 216 225 236 247 251 237 244 221 188 171 153 155 156 146 126 99 77 70 65 54 54 52 45 39 32 28 25 22 20 20 20
205 206 207 209 208 205 208 208 204 203 205 207 207 206 201 196 195 195 191 183 175 175 181 190 193 188 176 145 128 152 225 190 184 195 198 199 204 208 213 214 209 208 214 225 231 234 232 227 228 224 217 220 229 232 227 227 234 244 246 241 263 272 235 205 172 159 162 156 150 129 97 78 72 59 57 55 45 39 31 26 23 20 19 19 20
206 206 207 209 208 206 209 209 205 205 206 209 210 207 202 198 198 199 196 194 186 178 183 192 194 195 197 196 195 207 183 163 160 204 208 210 212 209 215 219 218 217 219 225 230 232 232 230 228 219 211 214 221 228 230 234 239 245 246 247 260 279 277 235 187 166 168 164 159 146 120 90 78 64 61 58 47 39 30 24 22 19 18 19 20
207 206 207 209 207 207 212 211 208 206 207 209 210 207 204 200 201 203 201 199 194 186 186 189 189 196 204 209 210 219 196 177 169 162 191 218 219 211 215 219 220 222 225 229 230 232 235 234 230 221 212 211 216 223 227 234 240 241 240 241 251 264 280 251 203 180 176 173 168 157 137 106 88 74 63 59 52 41 29 22 20 18 18 20 22
207 206 206 208 207 208 213 212 208 207 206 209 211 208 205 203 202 205 205 204 202 198 192 189 191 196 199 201 202 204 202 194 189 179 158 202 216 214 218 219 221 225 230 232 230 230 235 237 234 225 216 212 217 226 228 232 235 236 238 239 251 266 281 277 241 214 198 182 172 166 157 136 100 83 69 58 53 44 30 20 19 19 20 22 23
206 205 206 208 208 210 213 210 207 207 207 209 211 210 208 206 204 205 207 207 208 207 201 197 198 199 198 197 190 178 190 200 196 187 166 167 194 218 216 215 224 228 229 230 230 231 234 239 236 227 221 219 225 232 234 236 234 233 238 239 247 261 274 282 264 238 222 203 187 176 170 160 126 97 83 61 48 45 30 19 19 20 22 23 24
204 205 206 209 209 210 213 210 207 208 208 208 210 211 210 209 209 209 210 210 209 209 209 208 206 205 203 198 189 179 182 190 192 191 183 173 185 212 206 202 217 228 228 228 231 232 233 236 231 224 223 226 230 230 231 238 237 236 237 236 241 254 269 279 271 252 236 224 211 192 175 178 163 120 103 89 53 47 31 19 20 22 22 22 23
202 203 205 208 208 210 212 209 207 209 211 210 211 212 212 211 212 212 212 213 213 212 213 214 211 210 209 205 200 195 194 194 194 194 190 180 177 196 206 206 215 229 229 227 229 230 229 231 225 222 225 228 231 230 228 233 237 240 238 234 239 250 266 280 278 266 246 235 225 206 185 177 174 167 177 162 72 51 34 23 23 23 21 20 22
201 201 204 206 207 208 210 208 208 210 213 214 213 214 215 215 215 215 215 215 215 215 214 214 214 212 211 212 212 210 209 209 206 202 202 202 193 185 198 202 216 236 234 226 226 225 226 228 226 226 228 229 231 231 231 233 235 236 232 231 238 248 263 279 282 270 251 240 230 215 203 200 201 204 201 178 83 48 35 28 23 21 20 19 20
199 200 203 205 206 206 207 208 209 211 214 216 216 215 217 217 217 218 218 217 217 217 217 216 217 216 216 218 220 220 217 216 218 215 212 211 205 194 194 195 210 235 233 226 222 223 227 229 230 230 228 229 231 231 231 233 235 232 227 229 235 242 257 270 274 266 248 238 232 227 223 221 221 215 203 186 100 36 33 26 17 17 19 18 18
198 201 203 204 205 207 207 208 211 213 214 216 218 218 218 219 221 222 221 220 219 219 220 220 219 219 219 221 224 224 223 221 223 222 216 212 210 202 185 191 220 236 226 225 220 219 226 229 231 230 226 227 228 228 229 232 233 229 226 229 231 235 249 254 252 261 238 231 230 233 237 236 234 221 206 199 173 32 31 19 9 13 17 15 15
200 202 203 204 205 207 208 210 213 215 216 216 218 220 221 221 223 222 221 221 220 219 220 220 220 219 219 223 226 225 223 222 225 225 219 214 214 215 199 178 209 257 223 222 221 220 225 228 230 228 225 226 226 226 230 231 231 228 227 228 228 232 248 247 238 272 214 224 228 234 241 244 242 229 212 208 211 30 29 15 4 9 13 12 12
201 202 204 204 206 207 208 210 213 216 218 217 218 220 222 222 221 220 219 219 219 219 219 220 220 220 220 223 225 224 222 223 226 225 222 219 218 223 217 195 183 210 236 228 226 226 227 228 229 227 225 225 226 228 230 231 229 226 225 226 228 235 251 249 236 215 107 160 220 235 243 244 244 233 214 208 207 36 28 13 2 4 8 9 9
202 203 204 205 206 206 208 209 211 215 218 219 218 218 220 220 220 219 219 218 218 219 220 220 221 221 222 223 225 225 223 224 226 225 225 227 226 227 227 214 200 188 185 222 230 225 224 224 225 226 223 222 226 228 229 230 228 223 222 223 227 237 250 249 235 220 189 167 188 227 243 245 243 230 210 201 197 139 33 13 3 0 1 5 7
204 204 205 206 206 207 208 209 210 211 215 218 219 218 218 218 219 221 221 219 218 219 221 221 222 221 222 224 225 225 224 225 227 227 227 231 231 229 229 225 218 209 195 195 230 230 222 220 223 226 222 219 222 226 228 229 225 220 220 223 228 236 245 249 238 227 221 217 221 236 248 254 248 227 202 192 190 182 79 19 4 359 358 2 5
205 205 205 206 206 206 207 208 209 209 211 214 217 218 218 217 217 219 220 220 219 219 220 221 222 221 220 222 223 223 225 227 229 231 231 233 233 232 229 226 225 224 216 202 214 236 227 224 224 225 225 220 219 222 226 225 221 217 219 223 227 234 243 247 237 231 229 226 229 238 248 263 256 228 199 189 190 189 156 30 7 1 359 360 1
206 206 206 207 207 206 207 207 207 208 209 212 214 216 218 218 218 218 217 218 219 220 220 219 219 220 220 221 223 225 227 229 231 232 233 233 231 230 231 229 226 228 224 210 204 236 235 233 229 223 224 223 218 219 222 220 216 215 218 222 224 228 237 241 235 230 230 229 232 240 246 260 263 234 205 194 196 196 174 53 13 5 3 0 355
207 207 207 208 207 207 207 207 207 207 208 210 212 214 215 217 219 219 218 218 219 220 219 217 217 219 221 222 225 228 229 230 231 231 231 230 229 226 229 232 228 225 222 213 213 228 230 230 229 223 222 221 216 216 218 215 212 212 215 215 219 228 233 234 228 223 224 227 232 239 244 252 260 240 214 201 201 202 185 87 26 11 6 0 351
207 207 208 208 208 208 208 208 208 209 209 210 210 212 213 216 217 218 218 218 218 219 217 216 217 219 221 223 226 228 228 228 229 230 230 228 226 225 226 230 230 228 224 219 217 215 203 208 216 216 216 215 212 212 213 212 212 213 214 213 216 225 226 223 222 218 220 228 233 239 243 249 257 244 219 204 204 206 198 168 45 17 7 0 350
207 208 208 208 208 208 209 209 209 210 210 210 211 211 212 214 215 216 217 217 217 217 217 216 216 216 218 221 224 226 226 227 228 231 233 230 226 226 226 228 231 233 230 222 215 204 189 190 202 205 205 206 208 208 208 211 214 216 219 219 219 221 222 220 222 225 228 231 232 233 237 246 254 242 218 207 208 212 211 207 213 353 5 2 349
207 208 208 208 208 209 210 210 210 211 211 210 211 212 213 214 215 216 216 216 217 218 218 217 215 215 215 218 222 225 226 227 230 231 230 228 226 226 227 229 231 232 225 218 215 209 194 184 193 202 202 202 203 204 204 206 213 220 223 222 221 221 223 222 223 231 234 230 226 226 230 237 236 221 212 213 218 222 224 223 228 279 323 330 331
207 207 206 206 208 209 211 212 211 212 212 212 212 214 215 215 216 216 216 217 217 218 219 219 217 216 217 219 222 225 226 227 229 227 222 222 224 225 227 226 225 225 221 217 220 219 208 192 190 197 201 199 199 201 202 203 208 215 220 222 221 221 226 226 224 229 231 226 222 224 226 221 215 217 221 228 231 233 237 238 239 257 275 275 293
206 204 204 205 207 210 212 213 213 214 213 213 214 215 216 216 217 217 218 218 218 218 218 218 219 219 220 222 223 223 224 225 224 221 218 219 221 222 222 220 219 221 222 223 223 220 214 201 190 190 194 196 197 200 203 205 208 211 214 217 219 223 230 228 222 223 224 222 226 236 234 223 222 237 243 248 250 248 250 251 250 256 262 263 264
205 202 201 205 208 211 213 214 215 215 215 214 215 216 217 217 218 218 218 219 219 218 218 218 219 220 221 222 222 221 223 225 224 222 219 219 220 221 221 218 219 223 226 228 225 218 210 199 189 187 190 192 197 200 202 206 212 215 214 214 215 221 228 227 222 223 221 220 233 246 243 235 237 247 254 262 268 268 266 263 261 261 259 258 258
208 203 201 204 207 209 212 214 215 215 215 215 215 216 218 218 218 219 219 219 219 219 219 219 218 220 221 222 222 222 224 227 228 227 225 223 223 224 224 223 224 227 227 226 222 215 206 196 188 187 186 187 192 195 194 198 207 213 214 214 216 221 225 224 224 228 229 229 235 243 243 240 242 250 260 266 271 280 284 281 275 267 258 253 255
212 206 201 202 205 207 210 213 215 215 215 216 215 216 217 218 219 219 219 219 219 219 219 219 219 220 221 220 221 223 226 230 231 232 232 232 231 229 226 224 224 224 225 225 220 210 201 193 188 185 185 187 190 189 188 193 200 206 208 211 217 223 225 223 223 227 233 236 237 241 244 242 241 248 260 266 271 280 287 293 291 280 264 252 251
214 210 203 201 203 206 209 212 214 215 216 217 217 216 217 218 218 219 220 220 219 220 219 219 219 219 220 220 221 224 228 230 232 236 238 237 235 234 231 227 223 222 224 224 219 208 197 189 187 186 185 190 193 192 193 197 201 203 203 205 212 216 213 212 218 223 230 235 238 241 244 241 241 248 262 275 280 281 281 286 292 291 278 258 250
213 210 204 201 203 206 210 212 215 217 218 218 217 216 217 218 217 217 218 220 219 219 219 218 217 217 217 218 222 224 227 230 233 238 238 233 231 232 234 232 228 225 226 224 217 208 199 192 190 190 190 194 197 198 198 198 199 201 202 203 206 206 201 199 207 219 226 231 235 239 241 235 236 251 271 282 281 274 274 281 287 288 280 261 248
209 208 205 203 204 206 210 214 217 219 221 221 219 217 217 218 217 216 217 219 218 218 219 218 217 217 216 217 221 225 227 230 233 234 232 229 228 230 232 233 232 231 231 229 223 213 203 197 195 195 198 201 199 198 199 200 200 201 202 202 204 205 203 203 208 217 224 225 226 233 234 226 231 255 271 276 273 267 266 271 277 275 269 259 245
199 202 205 206 206 207 211 216 220 222 224 223 221 219 218 218 218 216 217 218 218 218 219 219 218 218 217 218 221 225 228 230 230 230 229 227 226 227 229 233 234 232 232 232 231 225 216 210 205 204 207 208 204 202 203 203 202 201 200 201 205 207 209 214 220 224 222 216 212 218 225 228 238 256 261 262 280 277 262 258 265 267 266 264 249
191 192 199 208 210 211 214 218 222 225 227 226 224 221 219 219 218 217 217 218 219 219 219 219 220 220 219 220 222 224 226 226 226 226 225 224 224 226 229 231 231 230 228 226 226 226 224 221 218 218 218 217 215 213 209 206 206 205 202 202 205 209 213 221 228 226 219 212 207 212 230 240 241 243 244 242 302 306 280 263 266 264 265 270 257
195 197 201 207 210 212 217 222 225 228 230 229 227 223 220 220 219 217 217 217 218 219 220 220 221 221 221 221 223 225 225 223 222 222 222 223 224 225 227 227 227 226 225 223 221 222 224 225 227 229 228 226 225 220 212 211 214 215 212 211 211 211 212 214 215 214 214 212 209 216 238 247 231 222 235 250 280 304 303 265 242 249 261 274 268
201 202 203 204 207 210 216 223 228 232 234 232 230 225 221 220 219 216 215 217 217 218 219 220 221 222 221 222 224 225 224 222 222 222 223 223 223 222 222 221 220 220 219 219 219 220 222 225 228 232 235 234 227 219 214 215 217 217 214 210 206 204 202 201 204 212 217 217 216 222 236 245 242 235 245 278 295 344 38 164 182 197 232 250 259
204 204 204 205 209 213 215 219 225 231 234 234 231 227 223 220 218 215 214 215 216 217 219 220 221 221 221 223 224 224 223 223 223 222 222 221 219 219 217 215 214 213 213 213 214 216 219 223 227 230 232 227 219 215 217 219 218 215 207 197 194 196 196 195 202 213 219 221 220 224 233 246 251 245 249 272 269 114 91 100 130 136 181 204 208
208 208 209 209 211 213 214 217 223 228 233 233 231 228 224 221 218 215 214 214 215 216 217 218 220 220 221 223 224 224 224 224 224 222 219 218 216 215 215 212 210 209 209 209 210 211 212 215 218 219 217 215 214 217 220 221 220 217 209 201 196 195 196 200 206 212 217 221 218 217 227 240 246 242 240 247 213 147 105 91 118 136 161 181 187
209 209 211 212 215 215 215 218 221 224 228 232 232 228 225 222 219 216 214 214 213 214 215 215 216 218 220 221 223 225 226 226 224 221 218 216 215 216 215 211 209 210 211 209 209 209 208 207 208 208 208 209 213 217 219 219 218 216 213 210 205 199 201 209 211 206 209 218 218 219 226 232 233 226 217 218 189 144 116 104 133 157 163 166 180